Theta_e
308 308 309 310 307 309 307 306 306 306 307 308 309 309 309 308 307 309 309 309 308 309 308 309 309 309 309 307 305 304 303 301 301 301 301 300 301 302 301 299 298 298 298 297
308 309 309 309 308 308 308 308 309 309 308 307 308 309 309 309 309 309 309 310 309 308 307 307 306 307 307 308 306 303 303 301 300 299 299 299 299 299 301 299 298 298 297 297
310 310 308 308 308 309 307 308 310 309 308 306 305 309 307 307 306 307 307 308 305 305 307 307 304 304 306 305 305 304 303 301 299 299 298 298 298 297 297 297 298 298 297 297
308 308 309 308 308 308 310 307 308 309 308 310 307 312 308 308 307 307 307 304 304 304 303 302 302 301 304 307 306 304 301 299 299 299 298 297 297 296 297 296 297 298 297 296
308 309 309 309 309 307 310 308 307 307 308 307 309 308 311 307 308 307 306 306 304 303 302 302 301 302 305 305 304 303 302 300 298 298 298 297 297 297 297 296 296 296 296 296
307 305 306 307 306 306 307 308 306 305 306 310 309 308 313 308 309 309 307 309 304 303 302 300 301 302 302 301 300 301 300 298 297 297 297 297 296 296 296 295 295 294 294 295
307 306 306 306 308 306 307 307 309 309 309 312 307 307 311 310 309 307 306 305 304 302 300 300 300 298 299 298 297 296 296 296 297 296 296 296 296 297 297 296 294 293 293 293
311 321 306 304 307 308 306 308 310 314 310 314 303 310 315 310 307 305 303 303 303 302 301 300 300 297 297 297 296 296 296 296 296 296 296 296 296 295 295 296 295 294 294 295
309 312 305 304 305 306 306 308 308 311 311 311 312 309 309 310 307 306 306 304 303 303 301 301 300 298 298 297 296 297 296 297 297 296 296 296 296 296 295 295 295 295 295 294
310 312 307 306 305 305 306 306 310 308 314 315 311 311 313 311 312 308 305 304 304 302 301 300 300 299 298 298 297 295 296 296 297 297 296 296 296 296 295 295 295 295 295 294
306 311 313 313 309 311 310 307 306 307 311 317 318 315 310 312 311 307 305 307 305 301 300 299 298 298 298 299 298 298 297 296 296 295 294 294 294 294 294 294 294 294 293 293
307 318 320 315 311 308 307 312 311 314 314 311 313 314 310 309 310 306 302 300 300 298 296 297 296 297 297 297 298 298 297 297 297 297 295 295 295 294 294 293 293 293 293 293
315 317 318 316 311 309 315 314 314 315 314 318 319 317 311 309 303 300 297 294 294 294 294 294 295 295 296 296 296 296 295 295 295 295 296 296 295 294 294 294 293 292 291 292
311 314 316 317 314 313 316 314 314 315 318 316 315 314 312 301 297 294 294 291 291 291 293 293 294 295 295 295 295 294 294 293 292 293 293 293 294 294 294 294 292 291 290 290
310 314 313 312 314 312 311 310 309 310 311 313 311 312 307 294 293 293 293 292 291 291 293 294 295 295 295 294 294 293 293 292 291 291 291 292 292 293 293 292 293 291 290 290
305 307 305 305 303 302 305 305 305 306 305 306 307 305 292 292 291 292 292 292 291 291 293 295 293 295 293 292 292 291 292 291 290 290 290 290 290 291 292 292 291 291 289 288
302 304 303 303 301 301 301 300 302 302 302 300 301 294 291 291 290 289 290 293 290 290 292 294 291 291 290 291 292 290 290 291 289 289 289 289 289 289 290 290 290 289 288 287
300 300 300 302 297 299 297 297 297 298 296 294 294 291 290 291 289 289 292 289 289 290 292 291 288 288 288 287 288 288 289 288 289 289 288 288 287 287 288 289 288 288 286 285
297 298 295 295 288 294 296 293 293 296 295 292 292 292 292 290 289 287 287 288 289 288 291 287 286 286 286 285 286 287 284 285 287 288 288 287 286 286 287 287 287 286 285 284
292 296 297 285 292 288 294 290 291 293 292 288 289 290 290 289 287 286 287 288 288 289 287 284 284 284 284 283 285 282 282 284 284 285 285 285 285 286 285 285 285 284 283 283
280 277 287 284 281 284 287 288 288 286 287 284 287 289 288 288 286 287 287 286 286 286 283 282 282 281 281 283 281 280 281 281 281 280 280 283 285 286 286 283 283 283 282 281
287 281 277 273 277 282 288 288 286 285 286 285 286 289 289 288 287 287 285 284 284 282 281 281 280 280 280 280 278 279 279 279 278 277 278 280 280 283 283 283 281 280 280 279
285 286 281 283 283 288 289 288 289 287 286 286 288 289 287 287 287 285 283 283 282 281 280 280 279 278 278 278 277 276 276 275 275 275 276 276 277 279 281 281 279 278 278 277
287 287 288 288 288 288 288 288 287 287 287 287 287 287 286 286 284 282 282 281 280 280 279 278 277 277 276 276 275 275 274 273 273 272 272 273 274 276 280 279 279 278 277 277
288 286 286 287 288 288 288 288 288 288 287 285 284 283 282 281 280 280 279 278 278 277 277 276 276 275 274 274 273 272 271 270 270 270 270 270 272 274 277 279 278 278 278 278
288 288 288 288 288 288 288 288 285 285 284 280 279 279 279 279 278 277 276 276 275 275 274 274 273 272 271 271 270 269 268 267 267 267 267 268 270 272 274 278 278 278 279 278
Wind_Speed
1 4 9 20 13 9 2 6 11 8 9 4 20 22 18 16 11 25 22 18 20 21 22 30 27 25 25 29 31 36 38 41 42 42 42 39 46 47 44 45 42 41 40 38
4 7 17 2 2 6 5 11 18 14 14 5 13 21 17 20 21 20 24 24 18 17 18 20 16 15 20 28 31 33 39 40 44 43 40 28 35 42 48 47 45 44 42 39
11 10 3 6 3 8 4 7 17 14 7 5 10 14 8 9 8 14 18 22 10 14 20 20 7 11 18 25 29 34 39 42 41 39 35 29 27 23 39 42 45 45 43 42
6 3 6 3 7 9 15 11 13 11 6 7 5 15 7 8 10 8 16 8 12 12 9 10 10 8 18 27 27 30 32 35 39 42 42 41 33 25 37 41 48 49 47 45
7 3 2 4 9 8 11 4 7 3 4 5 1 3 2 4 6 11 9 9 7 8 8 11 11 16 24 18 20 27 29 32 35 42 44 44 35 32 29 35 42 45 47 45
7 0 6 8 7 9 2 2 4 4 2 6 9 8 20 3 4 3 8 15 9 9 11 12 11 14 21 15 12 19 26 31 33 37 39 39 33 31 29 35 38 42 43 45
2 5 4 4 3 1 3 4 3 3 1 9 3 3 15 9 15 8 10 10 7 9 10 11 11 12 19 12 5 12 19 24 29 34 37 38 38 40 40 41 39 41 42 47
5 16 6 5 9 9 8 9 6 7 5 12 4 7 18 5 7 11 7 7 5 9 8 10 10 6 15 11 4 10 16 20 25 32 36 37 37 35 36 39 40 42 45 50
4 11 3 6 4 4 4 5 3 2 2 2 12 14 14 14 6 4 2 5 7 9 9 10 11 11 14 12 8 11 15 20 24 29 32 35 38 39 38 38 38 39 40 44
4 11 5 3 3 5 7 3 2 1 3 6 7 13 12 22 24 7 8 8 9 9 10 10 14 17 26 19 16 13 13 17 19 25 31 35 38 40 42 40 41 42 41 41
2 3 7 0 7 12 2 4 3 2 5 10 16 12 10 21 22 8 10 11 14 18 18 18 17 25 27 29 29 24 19 20 22 23 25 29 32 35 37 42 43 43 41 41
9 5 12 25 6 4 5 11 9 11 9 10 13 12 14 16 22 20 19 16 16 17 18 16 14 20 24 26 29 31 33 32 33 33 29 31 33 34 35 41 44 44 43 42
4 4 2 4 5 4 1 2 4 10 6 13 12 7 8 12 18 19 18 18 16 16 17 17 17 16 22 25 26 28 29 31 32 29 34 35 33 35 40 44 45 44 45 46
3 5 10 14 13 7 11 10 12 13 9 14 14 21 17 13 13 16 13 15 18 18 17 16 16 15 22 26 25 27 27 30 33 32 28 31 33 33 38 39 41 43 44 44
2 12 15 18 11 7 8 13 18 18 17 12 19 20 8 10 13 14 12 15 14 17 18 16 16 14 22 25 28 30 29 30 30 29 33 32 27 31 33 36 39 41 43 45
2 3 5 13 19 14 19 18 19 21 20 16 18 11 4 3 7 9 9 10 16 15 15 14 15 15 21 28 29 31 30 34 35 32 31 33 34 27 33 36 36 39 41 41
2 3 6 18 12 8 12 21 20 18 19 3 10 2 1 4 8 11 11 7 12 12 15 12 15 16 23 26 28 29 30 30 31 30 31 35 37 37 32 29 33 37 38 37
9 11 5 12 9 19 7 5 8 9 6 6 5 3 6 6 5 10 5 5 9 11 11 11 12 18 23 28 27 28 31 31 28 28 27 32 36 36 35 29 27 31 31 35
16 11 4 4 7 8 8 3 2 1 5 5 4 6 7 8 5 3 3 6 8 11 8 13 18 21 24 27 28 29 31 30 28 29 32 35 37 37 35 27 26 28 28 28
2 12 8 2 4 6 2 2 2 3 4 8 6 7 7 4 5 9 8 5 9 14 13 17 20 21 22 27 25 26 27 27 26 28 31 33 35 36 34 29 24 25 26 26
3 3 6 6 4 7 4 5 1 5 5 6 5 8 8 5 6 9 11 7 11 15 19 21 21 19 22 23 24 26 25 26 29 30 34 34 31 35 35 29 24 24 24 22
5 4 4 2 3 7 4 3 4 6 4 4 4 11 11 9 9 10 10 12 9 11 21 24 21 23 28 25 23 24 27 30 29 32 32 31 33 30 32 27 27 21 23 21
2 6 4 7 6 4 4 8 12 4 7 7 8 11 8 8 12 12 11 14 13 18 22 23 20 26 32 27 24 24 30 28 32 33 33 33 33 31 29 26 22 21 21 17
5 4 10 14 14 17 18 18 6 9 14 14 9 7 5 10 10 12 12 13 14 21 22 24 23 25 30 32 30 29 30 29 29 32 34 34 31 31 29 25 24 22 20 20
7 5 5 12 17 14 16 16 16 16 11 4 4 3 4 5 12 11 13 15 15 23 27 25 24 26 33 36 36 35 34 30 32 33 33 32 30 29 30 28 25 25 27 28
10 17 9 12 19 15 16 17 2 1 2 3 4 7 6 7 11 12 15 19 21 23 29 28 31 31 36 37 39 36 33 32 34 34 32 29 27 28 28 27 25 26 30 27
Wind_Direction
145 126 202 221 202 243 171 239 252 262 264 300 278 276 270 271 271 278 278 267 267 267 278 276 271 268 257 249 241 233 224 218 210 203 200 208 213 217 218 219 219 218 217 215
50 225 231 45 140 236 251 269 272 277 264 250 273 273 278 265 256 252 268 278 275 286 287 283 278 250 240 245 235 228 225 218 210 203 200 201 203 215 216 216 217 217 217 216
210 235 186 183 168 240 211 235 265 267 304 253 299 281 233 272 249 257 260 262 280 262 273 288 320 261 260 245 235 229 225 218 209 204 195 197 198 208 211 215 216 215 216 217
230 295 205 132 209 203 264 225 256 272 348 282 4 298 176 230 262 273 266 274 263 280 296 278 288 265 249 264 248 231 223 217 209 204 198 193 196 193 208 207 212 214 214 214
250 195 165 173 219 159 241 178 240 194 205 317 244 272 106 105 223 267 290 273 283 304 299 297 292 284 291 269 251 234 217 216 212 207 204 197 198 202 210 203 211 214 213 214
243 313 180 219 218 188 103 100 58 48 96 280 188 180 295 159 240 249 316 313 336 329 322 312 315 320 306 304 251 217 211 206 208 210 208 205 203 199 195 202 205 210 213 212
222 218 221 169 232 136 144 87 312 326 44 233 81 162 251 288 280 269 280 278 302 327 316 325 334 343 342 319 268 213 204 198 203 209 213 213 213 212 211 208 201 202 207 212
213 293 180 179 196 200 184 171 176 218 253 282 99 244 269 239 281 261 268 264 321 327 339 344 339 351 340 327 231 197 205 209 208 210 216 216 218 219 217 218 211 211 211 213
208 263 186 193 184 179 180 178 241 320 271 258 267 273 299 294 303 345 322 346 338 332 330 333 336 355 2 325 271 218 214 215 217 219 222 222 218 221 225 223 223 224 222 220
258 266 190 214 160 214 178 193 216 342 243 243 232 260 267 290 291 300 303 331 330 279 312 348 9 14 17 359 343 316 284 258 244 234 229 229 230 226 226 228 227 224 225 223
224 246 267 77 204 206 189 232 216 201 202 254 267 258 262 274 296 343 352 336 6 21 17 15 15 21 18 13 12 353 333 313 295 276 263 250 245 236 232 234 231 230 227 223
219 208 237 252 249 231 189 250 243 241 249 244 264 263 296 315 313 26 41 26 5 11 6 3 9 9 14 16 14 8 2 5 347 317 288 270 258 251 244 243 239 232 229 227
12 238 259 309 311 41 141 290 278 276 279 250 263 273 306 326 13 25 20 8 5 5 6 359 360 6 8 9 8 4 360 1 358 340 308 286 268 258 251 247 244 241 234 228
211 223 258 272 268 262 273 269 270 265 262 285 269 284 288 349 359 357 8 17 0 357 358 356 356 356 357 358 358 356 352 352 347 346 337 292 268 263 259 253 245 241 236 234
330 277 272 270 290 312 300 291 287 265 268 266 287 286 340 16 354 354 2 0 2 353 348 352 350 342 346 349 348 349 346 343 341 346 345 337 314 291 269 255 249 243 237 232
133 286 335 298 293 292 282 271 259 266 279 267 263 271 35 8 338 336 339 350 344 344 339 342 343 343 339 340 340 341 341 339 339 342 347 344 342 329 294 272 254 242 236 231
242 273 271 272 287 301 280 253 252 257 261 250 259 114 194 294 322 328 325 321 340 331 318 330 333 334 330 330 331 332 331 331 335 334 336 344 344 340 325 296 262 241 232 225
252 257 255 275 305 271 255 62 72 93 85 93 97 195 218 247 278 290 181 324 318 318 313 318 322 322 319 323 325 328 329 329 330 328 328 337 338 333 332 306 272 252 237 224
215 234 257 235 219 293 297 35 74 196 179 173 204 254 252 269 278 216 333 298 298 301 299 311 312 311 316 317 322 328 327 326 327 327 326 327 331 326 323 308 285 261 242 229
37 221 222 92 221 229 189 256 265 114 258 217 201 236 228 249 309 308 311 298 293 295 293 299 299 297 296 307 316 321 317 318 319 323 320 312 314 320 313 310 293 271 248 237
3 24 209 233 241 286 235 258 100 92 244 221 199 224 223 212 216 277 300 285 284 290 299 300 301 293 297 299 309 306 306 305 311 314 314 311 309 314 321 305 292 272 248 234
183 174 222 80 32 294 209 349 150 223 270 227 265 255 225 241 261 265 278 291 283 290 294 295 297 296 300 298 303 295 293 302 305 304 305 306 310 306 303 300 281 258 240 217
276 199 189 188 217 246 229 241 281 215 232 263 251 248 232 260 270 272 278 283 286 287 285 289 287 288 291 290 290 284 290 302 304 304 303 304 304 303 286 279 260 244 228 219
245 231 255 268 262 256 265 272 258 280 271 279 260 245 238 254 269 281 286 287 290 289 285 288 288 283 287 291 292 287 297 303 300 298 298 299 297 295 287 263 252 236 226 215
233 180 214 250 261 269 265 265 265 267 279 276 288 259 276 289 282 284 284 284 286 289 292 293 285 285 286 292 292 295 299 302 298 294 291 289 289 285 283 263 249 242 241 231
226 239 232 251 261 262 272 277 12 287 308 26 335 316 297 282 281 286 282 286 291 290 293 294 292 290 291 295 293 295 296 298 293 288 287 285 284 283 281 273 261 251 250 248